Weather Roundup
Issued by NWS Chicago, IL

Home | Current Version | Previous Version | Graphics & Text | Print | Product List | Glossary On
Versions: 1 2 3 4 5 6 7 8 9 10 11 12 13 14 15 16 17 18 19 20 21 22 23 24 25 26 27 28 29 30 31 32 33 34 35 36 37 38 39 40 41 42 43 44 45 46 47 48 49 50
000
NZUS59 KLOT 270803
HRRLOT

CHICAGO AREA WEATHER ROUNDUP
NATIONAL WEATHER SERVICE CHICAGO/ROMEOVILLE IL
300 AM CDT THU APR 27 2017

NOTE: "FAIR" INDICATES FEW OR NO CLOUDS BELOW 12,000 FEET WITH NO
SIGNIFICANT WEATHER AND/OR OBSTRUCTIONS TO VISIBILITY.

* THESE STATIONS ARE NOT UNDER NWS QUALITY CONTROL. THEY ALSO MAY NOT
  REPORT WEATHER SUCH AS PRECIPITATION OR FOG.

ILZ005-006-012>014-019>023-270900-
NORTHEAST ILLINOIS

CITY           SKY/WX    TMP DP  RH WIND       PRES   REMARKS
OHARE          LGT RAIN  60  57  89 S12       29.35F
MIDWAY         LGT RAIN  61  59  93 S13       29.36F
AURORA         LGT RAIN  60  58  92 S14G23    29.34F
LANSING*       LGT RAIN  60  60 100 S14G20    29.39R
JOLIET*        LGT RAIN  61  59  95 S9        29.35F
WAUKEGAN       CLOUDY    55  55 100 S13       29.33F FOG
DUPAGE AIRPORT LGT RAIN  59  59 100 S12       29.33F FOG
WHEELING       LGT RAIN  60  60 100 S10       29.36F
KANKAKEE*      LGT RAIN  58  57  97 S16G23    29.35F
MORRIS*        LGT RAIN  59  57  92 S15       29.33F
NORTHERLY ISL    N/A     60  58  92 S10         N/A
$$

WIZ051-052-058>065-066-070>072-270900-
SOUTHEAST WISCONSIN

CITY           SKY/WX    TMP DP  RH WIND       PRES   REMARKS
MILWAUKEE      LGT RAIN  55  54  96 NE6       29.34F FOG
KENOSHA*       LGT RAIN  56  55  97 SE9       29.33F FOG
RACINE*        LGT RAIN  54  53  97 SE6       29.36F FOG
WAUKESHA       LGT RAIN  48  48 100 N7        29.36F
WEST BEND      RAIN      48  48 100 N5        29.36F
$$

INZ001>003-010>013-019-020-270900-
NORTHWEST INDIANA

CITY           SKY/WX    TMP DP  RH WIND       PRES   REMARKS
GARY*          RAIN      62  60  92 S9        29.39S
MICHIGAN CITY* NOT AVBL
RENSSELAER*    NOT AVBL
VALPARAISO     LGT RAIN  62  60  93 S14G22    29.43S
$$

LMZ740>746-270900-
SOUTHERN LAKE MICHIGAN

STATION/POSITION TIME  SKY/WX   TEMP WIND        PRES    VSBY
                                AIR  DIR/SP/G
                 (UTC)          (F)  (DEG/KT/KT) (MB)    (MI)
HARRISON CRIB    0730            56  170/ 12/ 13   N/A
BURNHAM HARBOR   0800            60  160/ 10/ 13   N/A
CALUMET HARBOR   0730            61  170/  7/ 11  994.5F
BURNS HARBOR     0740            62  160/  9/ 16  995.9F
MICHIGAN CITY    0740            61  150/ 11/ 13   N/A
$$

ABBREVIATIONS USED IN REMARKS
   TC - TEMPERATURE IN CELSIUS
  WCI - WIND CHILL INDEX
   HX - HEAT INDEX
  VSB - VISIBILITY
$$




USA.gov is the U.S. government's official web portal to all federal, state and local government web resources and services.